This is the latest recevied weather packets stored in our database for station/object IW1QNQ-15. If no packets are shown the sender has not sent any weather packets the latest 10 day(s).
| Time | Temp. | Humidity | Pressure | Rain* | Wind** | Luminosity | Snow |
|---|---|---|---|---|---|---|---|
| 1788144884 | 21.11° C | 100% | 1017.3 hPa | - | - | - | - |
| 1788143684 | 21.11° C | 100% | 1017.3 hPa | - | - | - | - |
| 1788142483 | 21.11° C | 100% | 1017.3 hPa | - | - | - | - |
| 1788141283 | 21.11° C | 100% | 1017.3 hPa | - | - | - | - |
| 1788138884 | 21.11° C | 100% | 1017.5 hPa | - | - | - | - |
| 1788137684 | 21.11° C | 100% | 1017.6 hPa | - | - | - | - |
| 1788136484 | 21.11° C | 100% | 1017.6 hPa | - | - | - | - |
| 1788134083 | 21.11° C | 100% | 1017.6 hPa | - | - | - | - |
| 1788132884 | 21.11° C | 100% | 1017.5 hPa | - | - | - | - |
| 1788131684 | 21.11° C | 100% | 1017.5 hPa | - | - | - | - |
| 1788129282 | 21.67° C | 95% | 1017.4 hPa | - | - | - | - |
| 1788128082 | 21.67° C | 93% | 1017.5 hPa | - | - | - | - |
| 1788126884 | 21.67° C | 99% | 1017.5 hPa | - | - | - | - |
| 1788125684 | 21.67° C | 97% | 1017.4 hPa | - | - | - | - |
| 1788124484 | 21.67° C | 95% | 1017.2 hPa | - | - | - | - |
| 1788123283 | 21.67° C | 98% | 1017.2 hPa | - | - | - | - |
| 1788122084 | 21.67° C | 99% | 1017.2 hPa | - | - | - | - |
| 1788120883 | 21.67° C | 94% | 1017.2 hPa | - | - | - | - |
| 1788119683 | 21.67° C | 100% | 1017.1 hPa | - | - | - | - |
| 1788118483 | 21.67° C | 100% | 1017 hPa | - | - | - | - |
| 1788117283 | 22.22° C | 100% | 1016.9 hPa | - | - | - | - |
| 1788116082 | 22.22° C | 100% | 1016.6 hPa | - | - | - | - |
| 1788114882 | 22.22° C | 100% | 1016.4 hPa | - | - | - | - |
| 1788113682 | 22.78° C | 99% | 1016.3 hPa | - | - | - | - |
| 1788112482 | 22.78° C | 97% | 1016.2 hPa | - | - | - | - |
* Rain since midnight (hover to see other rain measurements)
** Current wind speed in m/s (hover to see current wind gust speed)